Dickinson, ND

1:17 AM MDT on April 30, 2017 (GMT -0600)
Dickinson Municipal

Weather History for KDIK - February, 2013

Change the Weather History Date:

Saturday, February 23, 2013

  Actual Average Record
Temperature  
Mean Temperature 30 °F 22 °F  
Max Temperature 44 °F 33 °F 65 °F (1958)
Min Temperature 16 °F 12 °F -28 °F (1910)
Degree Days  
Heating Degree Days 35 43  
Month to date heating degree days 923 1039  
Since 1 July heating degree days 5803 6086  
Cooling Degree Days 0 0  
Month to date cooling degree days 0 0  
Year to date cooling degree days 0 0  
Moisture  
Dew Point 22 °F    
Average Humidity 61    
Maximum Humidity 84    
Minimum Humidity 37    
Precipitation  
Precipitation T in 0.01 in 0.17 in (1949)
Month to date precipitation T 0.25  
Year to date precipitation 0.08 0.55  
Sea Level Pressure  
Sea Level Pressure 29.72 in    
Wind  
Wind Speed 8 mph (SSW)    
Max Wind Speed 17 mph    
Max Gust Speed 21 mph    
Visibility 10 miles    
Events      
T = Trace of Precipitation, MM = Missing Value Source: NWS Daily Summary

Daily Weather History Graph

Daily Weather History Graph

Search for Another Location

Airport or City:

Trip Planner

Search our weather history database for the weather conditions in past years. The results will help you decide how hot, cold, wet, or windy it might be!

Date:

Astronomy

Feb. 23, 2013 Rise Set
Actual Time 6:41 AM MST 5:28 PM MST
Civil Twilight 6:10 AM MST 5:59 PM MST
Nautical Twilight 5:35 AM MST 6:34 PM MST
Astronomical Twilight 5:00 AM MST 7:09 PM MST
Moon 3:37 PM MST (2/23) 5:09 AM MST (2/23)
Length of Visible Light 11h 48m
Length of Day
10h 47m
Waxing Gibbous, 95% of the Moon is Illuminated
Feb 23
Waxing Gibbous
Feb 25
Full
Mar 4
Last Quarter
Mar 11
New
Mar 19
First Quarter

Hourly Weather History & Observations

Time (MST) Temp. Windchill Dew Point Humidity Pressure Visibility Wind Dir Wind Speed Gust Speed Precip Events Conditions
12:56 AM 19.9 °F 10.1 °F 15.1 °F 81% 29.75 in 10.0 mi South 8.1 mph - N/A   Clear
1:56 AM 19.0 °F 8.2 °F 15.1 °F 85% 29.74 in 10.0 mi South 9.2 mph - N/A   Clear
2:56 AM 19.9 °F 9.3 °F 15.1 °F 81% 29.71 in 10.0 mi South 9.2 mph - N/A   Clear
3:56 AM 17.1 °F 8.7 °F 12.0 °F 81% 29.70 in 10.0 mi South 5.8 mph - N/A   Clear
4:56 AM 19.9 °F 9.3 °F 14.0 °F 78% 29.70 in 10.0 mi South 9.2 mph - N/A   Clear
5:56 AM 19.9 °F 9.3 °F 15.1 °F 81% 29.71 in 10.0 mi South 9.2 mph - N/A   Clear
6:56 AM 19.0 °F 8.2 °F 14.0 °F 81% 29.70 in 10.0 mi South 9.2 mph - N/A   Clear
7:56 AM 24.1 °F 16.0 °F 18.0 °F 77% 29.70 in 10.0 mi South 6.9 mph - N/A   Clear
8:56 AM 30.9 °F 23.5 °F 23.0 °F 72% 29.70 in 10.0 mi South 8.1 mph - N/A   Overcast
9:56 AM 37.0 °F 29.3 °F 21.9 °F 54% 29.69 in 10.0 mi South 11.5 mph - N/A   Clear
10:56 AM 39.9 °F 32.5 °F 23.0 °F 51% 29.67 in 10.0 mi South 12.7 mph - N/A   Overcast
11:56 AM 42.1 °F 35.2 °F 25.0 °F 51% 29.66 in 10.0 mi South 12.7 mph - N/A   Scattered Clouds
12:56 PM 44.1 °F 36.8 °F 19.9 °F 38% 29.65 in 10.0 mi South 16.1 mph - N/A   Overcast
1:56 PM 44.1 °F 38.6 °F 21.0 °F 40% 29.65 in 10.0 mi South 10.4 mph - N/A   Overcast
2:56 PM 42.1 °F 37.7 °F 23.0 °F 47% 29.66 in 10.0 mi South 6.9 mph - N/A   Overcast
3:56 PM 39.9 °F 35.8 °F 28.0 °F 63% 29.70 in 10.0 mi South 5.8 mph - N/A   Overcast
4:56 PM 39.0 °F 32.3 °F 30.0 °F 70% 29.71 in 10.0 mi West 10.4 mph - N/A   Overcast
5:56 PM 36.0 °F 29.0 °F 30.0 °F 79% 29.75 in 10.0 mi WSW 9.2 mph - N/A   Overcast
6:56 PM 37.0 °F 34.5 °F 30.0 °F 76% 29.77 in 10.0 mi West 3.5 mph - N/A   Overcast
7:56 PM 35.1 °F 32.2 °F 30.9 °F 85% 29.78 in 10.0 mi West 3.5 mph - N/A   Overcast
9:56 PM 34.0 °F 28.0 °F 28.9 °F 82% 29.80 in 10.0 mi WNW 6.9 mph - N/A   Overcast
10:56 PM 33.1 °F 26.9 °F 28.9 °F 85% 29.81 in 10.0 mi WNW 6.9 mph - N/A   Overcast
11:56 PM 33.1 °F 27.7 °F 28.0 °F 82% 29.83 in 10.0 mi WNW 5.8 mph - N/A   Overcast